GW4719 Weather Reports


Display with metric or nautical units.
time (UTC)temp
F
wind
direction
speed
MPH
gust
MPH
rain 1hr
in
rain 24hr
in
rain mn
in
humidity
%
barometer
mb
20260504060138 45 136 1.0 1.0 0.00 0.00 0.00 61 1017.9
20260504050606 46 136 0.0 0.0 0.00 0.00 0.00 54 1018.1
20260504050103 46 136 0.0 0.0 0.00 0.00 0.00 53 1018.1
20260504045600 46 136 0.0 0.0 0.00 0.00 0.00 53 1018.0
20260504045054 45 136 0.0 0.0 0.00 0.00 0.00 54 1018.2
20260504044553 45 136 0.0 0.0 0.00 0.00 0.00 55 1018.2
20260504044049 46 136 1.0 2.0 0.00 0.00 0.00 57 1017.9
20260504043547 45 135 0.0 2.0 0.00 0.00 0.00 57 1018.1
20260504043044 45 136 1.0 2.0 0.00 0.00 0.00 56 1018.1
20260504042541 45 136 1.0 1.0 0.00 0.00 0.00 56 1018.2
20260504042038 45 136 1.0 1.0 0.00 0.00 0.00 54 1018.2
20260504041533 45 136 0.0 0.0 0.00 0.00 0.00 55 1018.1
20260504041030 45 136 0.0 1.0 0.00 0.00 0.00 55 1018.1
20260504040527 46 136 0.0 0.0 0.00 0.00 0.00 57 1018.1
20260504040024 46 136 0.0 0.0 0.00 0.00 0.00 51 1018.2
20260504035521 46 136 0.0 0.0 0.00 0.00 0.00 52 1018.2
20260504035017 46 136 0.0 0.0 0.00 0.00 0.00 51 1018.2
20260504034515 46 136 0.0 0.0 0.00 0.00 0.00 51 1018.0
20260504034012 46 136 0.0 0.0 0.00 0.00 0.00 52 1018.2
20260504033509 45 136 0.0 0.0 0.00 0.00 0.00 52 1018.2
20260504033007 45 136 0.0 0.0 0.00 0.00 0.00 55 1017.9
20260504032503 45 136 1.0 1.0 0.00 0.00 0.00 55 1017.8
20260504032000 45 136 1.0 1.0 0.00 0.00 0.00 55 1018.0
20260504031457 45 136 0.0 1.0 0.00 0.00 0.00 55 1018.1
20260504030953 46 136 0.0 1.0 0.00 0.00 0.00 54 1018.0
20260504030451 46 136 2.0 2.0 0.00 0.00 0.00 53 1018.0
20260504025946 46 136 0.0 2.0 0.00 0.00 0.00 51 1018.1
20260504025444 46 136 0.0 1.0 0.00 0.00 0.00 52 1018.0
20260504024941 46 136 0.0 1.0 0.00 0.00 0.00 52 1018.1
20260504024438 46 135 0.0 0.0 0.00 0.00 0.00 51 1018.1
20260504023934 45 135 1.0 2.0 0.00 0.00 0.00 53 1018.2
20260504023431 46 264 2.0 2.0 0.00 0.00 0.00 50 1018.2
20260504022927 47 264 0.0 0.0 0.00 0.00 0.00 48 1018.2
20260504022423 47 264 0.0 0.0 0.00 0.00 0.00 49 1018.0
20260504021920 47 264 0.0 0.0 0.00 0.00 0.00 48 1018.0
20260504021417 47 264 1.0 1.0 0.00 0.00 0.00 48 1018.3
20260504020914 47 264 0.0 1.0 0.00 0.00 0.00 48 1018.2
20260504020411 46 264 1.0 1.0 0.00 0.00 0.00 50 1018.0
20260504015908 47 264 0.0 0.0 0.00 0.00 0.00 49 1018.0
20260504015404 47 264 0.0 1.0 0.00 0.00 0.00 49 1017.9
20260504014900 47 264 0.0 0.0 0.00 0.00 0.00 48 1017.8
20260504014355 47 264 1.0 1.0 0.00 0.00 0.00 47 1017.5
20260504013853 47 264 1.0 2.0 0.00 0.00 0.00 46 1017.7
20260504013350 47 264 0.0 2.0 0.00 0.00 0.00 44 1017.5
20260504012847 48 301 2.0 2.0 0.00 0.00 0.00 44 1017.3
20260504012345 48 301 0.0 2.0 0.00 0.00 0.00 46 1017.2
20260504011842 49 301 0.0 0.0 0.00 0.00 0.00 43 1017.1
20260504011338 49 301 0.0 0.0 0.00 0.00 0.00 42 1017.3
20260504010834 50 301 0.0 0.0 0.00 0.00 0.00 41 1017.3
20260504010330 50 301 0.0 1.0 0.00 0.00 0.00 39 1017.2
20260504005827 51 301 0.0 0.0 0.00 0.00 0.00 37 1017.1
20260504005324 51 301 0.0 0.0 0.00 0.00 0.00 37 1017.1
20260504004821 52 301 0.0 0.0 0.00 0.00 0.00 36 1016.8
20260504004319 52 301 0.0 0.0 0.00 0.00 0.00 36 1017.1
20260504003815 52 301 0.0 0.0 0.00 0.00 0.00 36 1017.1
20260504003312 52 301 0.0 0.0 0.00 0.00 0.00 36 1016.8
20260504002808 53 301 0.0 0.0 0.00 0.00 0.00 35 1016.7
20260504002306 53 301 0.0 0.0 0.00 0.00 0.00 34 1016.8
20260504001803 54 301 0.0 0.0 0.00 0.00 0.00 33 1016.8
20260504001300 54 301 3.0 3.0 0.00 0.00 0.00 33 1016.7
20260504000757 54 293 1.0 2.0 0.00 0.00 0.00 33 1016.7
20260504000254 55 293 1.0 2.0 0.00 0.00 0.00 33 1016.7
20260503235752 55 309 1.0 2.0 0.00 0.00 0.00 32 1016.8
20260503235249 55 318 1.0 2.0 0.00 0.00 0.00 32 1016.7
20260503234747 56 318 2.0 3.0 0.00 0.00 0.00 31 1016.5
20260503234245 57 307 0.0 2.0 0.00 0.00 0.00 29 1016.7
20260503233741 59 307 2.0 2.0 0.00 0.00 0.00 28 1016.7
20260503233237 60 276 2.0 3.0 0.00 0.00 0.00 28 1016.7
20260503232734 60 272 2.0 3.0 0.00 0.00 0.00 28 1016.7
20260503232231 60 277 2.0 7.0 0.00 0.00 0.00 27 1016.7
20260503231730 60 287 3.0 4.0 0.00 0.00 0.00 28 1016.6
20260503231226 60 306 2.0 4.0 0.00 0.00 0.00 28 1017.0
20260503230722 61 329 0.0 4.0 0.00 0.00 0.00 26 1016.7
20260503230220 61 307 3.0 4.0 0.00 0.00 0.00 26 1016.7
20260503225717 61 263 3.0 4.0 0.00 0.00 0.00 27 1016.7
20260503225211 61 318 2.0 4.0 0.00 0.00 0.00 27 1016.7
20260503224709 62 316 2.0 3.0 0.00 0.00 0.00 27 1016.6
20260503224207 61 269 3.0 4.0 0.00 0.00 0.00 25 1016.6
20260503223704 61 288 4.0 6.0 0.00 0.00 0.00 25 1016.6
20260503223201 61 338 2.0 4.0 0.00 0.00 0.00 25 1016.5
20260503222657 61 302 4.0 7.0 0.00 0.00 0.00 26 1016.8
20260503222156 61 315 1.0 2.0 0.00 0.00 0.00 25 1016.5
20260503221654 61 315 3.0 4.0 0.00 0.00 0.00 25 1016.4
20260503221151 61 296 1.0 6.0 0.00 0.00 0.00 26 1016.5
20260503220647 61 287 3.0 6.0 0.00 0.00 0.00 28 1016.6
20260503220143 61 343 2.0 6.0 0.00 0.00 0.00 26 1016.4
20260503215641 61 332 3.0 8.0 0.00 0.00 0.00 27 1016.7
20260503215137 62 301 2.0 3.0 0.00 0.00 0.00 27 1016.5
20260503214636 62 302 4.0 6.0 0.00 0.00 0.00 25 1016.5
20260503214132 62 293 2.0 7.0 0.00 0.00 0.00 25 1016.7
20260503213626 63 273 2.0 6.0 0.00 0.00 0.00 25 1016.8
20260503213122 64 294 2.0 3.0 0.00 0.00 0.00 25 1016.6
20260503212620 64 295 0.0 3.0 0.00 0.00 0.00 28 1017.0
20260503212117 62 279 2.0 4.0 0.00 0.00 0.00 25 1017.0
20260503211615 61 307 5.0 6.0 0.00 0.00 0.00 27 1016.8
20260503211110 60 352 3.0 6.0 0.00 0.00 0.00 26 1016.8
20260503210606 61 327 4.0 9.0 0.00 0.00 0.00 26 1016.8
20260503205559 60 316 1.0 3.0 0.00 0.00 0.00 27 1017.1
20260503205055 60 323 4.0 6.0 0.00 0.00 0.00 26 1017.0
20260503204552 62 310 3.0 7.0 0.00 0.00 0.00 25 1016.7
20260503204050 64 317 4.0 7.0 0.00 0.00 0.00 24 1017.2
20260503203546 62 245 3.0 6.0 0.00 0.00 0.00 24 1017.1
20260503203043 62 225 4.0 6.0 0.00 0.00 0.00 23 1017.0
20260503202541 62 291 2.0 3.0 0.00 0.00 0.00 27 1017.3
20260503202034 61 291 2.0 2.0 0.00 0.00 0.00 26 1017.4
20260503201532 61 291 1.0 3.0 0.00 0.00 0.00 25 1017.3
20260503201028 59 290 2.0 11.0 0.00 0.00 0.00 28 1017.5
20260503200524 61 353 2.0 4.0 0.00 0.00 0.00 27 1017.4
20260503200021 61 304 4.0 8.0 0.00 0.00 0.00 27 1017.6
20260503195519 59 338 4.0 7.0 0.00 0.00 0.00 27 1017.7
20260503195015 59 348 7.0 9.0 0.00 0.00 0.00 26 1017.6
20260503194513 60 5 7.0 9.0 0.00 0.00 0.00 26 1017.6
20260503194012 59 4 6.0 13.0 0.00 0.00 0.00 25 1017.8
20260503193509 60 319 8.0 10.0 0.00 0.00 0.00 27 1017.9
20260503193004 58 336 4.0 7.0 0.00 0.00 0.00 27 1018.1
20260503192501 58 343 4.0 9.0 0.00 0.00 0.00 27 1018.2
20260503191956 58 286 7.0 9.0 0.00 0.00 0.00 26 1017.9
20260503191454 59 121 2.0 3.0 0.00 0.00 0.00 27 1018.2
20260503190950 60 287 7.0 10.0 0.00 0.00 0.00 27 1018.1
20260503190447 58 291 3.0 4.0 0.00 0.00 0.00 27 1018.2
20260503185944 58 342 3.0 7.0 0.00 0.00 0.00 28 1018.3
20260503185441 61 357 5.0 8.0 0.00 0.00 0.00 26 1018.3
20260503184940 59 231 4.0 8.0 0.00 0.00 0.00 27 1018.4
20260503184437 58 287 3.0 7.0 0.00 0.00 0.00 25 1018.6
20260503183933 60 257 6.0 8.0 0.00 0.00 0.00 26 1018.6
20260503183430 58 224 3.0 9.0 0.00 0.00 0.00 26 1018.6
20260503182927 58 201 5.0 9.0 0.00 0.00 0.00 26 1018.7
20260503182426 57 217 8.0 13.0 0.00 0.00 0.00 27 1018.6
20260503181923 56 325 6.0 8.0 0.00 0.00 0.00 28 1018.8
20260503181420 57 254 4.0 7.0 0.00 0.00 0.00 27 1019.1
20260503180916 59 271 6.0 7.0 0.00 0.00 0.00 27 1018.7
20260503180414 58 246 3.0 4.0 0.00 0.00 0.00 27 1018.7
20260503175911 57 291 3.0 6.0 0.00 0.00 0.00 30 1019.1
20260503175409 57 250 3.0 7.0 0.00 0.00 0.00 28 1019.2
20260503174904 56 291 3.0 6.0 0.00 0.00 0.00 30 1019.0
20260503174403 55 359 2.0 4.0 0.00 0.00 0.00 31 1018.7
20260503173902 56 353 4.0 8.0 0.00 0.00 0.00 29 1018.7
20260503173359 58 304 3.0 10.0 0.00 0.00 0.00 29 1019.1
20260503172855 56 273 6.0 10.0 0.00 0.00 0.00 29 1019.0
20260503172353 56 308 7.0 8.0 0.00 0.00 0.00 30 1019.3
20260503171849 54 262 6.0 11.0 0.00 0.00 0.00 29 1019.3
20260503171346 54 289 6.0 9.0 0.00 0.00 0.00 32 1019.4
20260503170844 54 332 7.0 9.0 0.00 0.00 0.00 33 1019.4
20260503170340 55 320 5.0 6.0 0.00 0.00 0.00 33 1019.5
20260503150732 48 271 2.0 6.0 0.00 0.00 0.00 42 1020.3
20260503150228 47 307 3.0 7.0 0.00 0.00 0.00 45 1020.3
20260503140153 45 15 6.0 8.0 0.00 0.00 0.00 46 1020.4
20260503131122 43 20 7.0 8.0 0.00 0.00 0.00 50 1020.2
20260503130620 43 4 3.0 6.0 0.00 0.00 0.00 51 1020.2
20260503130117 43 269 4.0 7.0 0.00 0.00 0.00 50 1020.4
20260503110510 38 66 1.0 1.0 0.00 0.00 0.00 64 1019.2
20260503090355 38 12 1.0 2.0 0.00 0.00 0.00 68 1018.1
20260503081317 40 344 2.0 3.0 0.00 0.00 0.00 62 1017.6
20260503080813 40 352 3.0 3.0 0.00 0.00 0.00 63 1017.4
20260503080311 39 347 1.0 2.0 0.00 0.00 0.00 63 1017.5
20260503072747 40 13 2.0 3.0 0.00 0.00 0.00 62 1017.3
20260503072244 40 338 2.0 7.0 0.00 0.00 0.00 62 1017.4
20260503071740 40 1 1.0 2.0 0.00 0.00 0.00 62 1017.1
20260503071237 40 336 0.0 1.0 0.00 0.00 0.00 63 1017.2
20260503070733 40 342 1.0 4.0 0.00 0.00 0.00 62 1017.1
20260503070232 40 5 1.0 4.0 0.00 0.00 0.00 63 1017.0